STARLINK-35230

Last updated on Mon Oct 20 2025 00:02:06 GMT+0000 (Coordinated Universal Time)

1 65681U 25212F 25292.25002315 -.02051261 00000+0 -48752-1 0 9991 2 65681 53.1591 282.8222 0001317 69.2177 16.8733 15.44640831 5674
UTC large
Height (km)
Speed (km/s)
/
Latitude / Longitude
Inclination (degrees)
Orbital Period (minutes)
Azimuth
Elevation
Range (km)
Doppler Factor

Next 0 passes for location: London (51.5072 / 0.1276)

Sorry there are no passes over London.